Stations météo

réclame
Mon MeteoGroup
Malmo/Sturup, Suède (2636): Température de l'air & dewpoint: 12.08.2018 02:00:00 - 18.08.2018 02:00:00 (CEST)Malmo/Sturup, Suède (2636): Vitesse du vent: 12.08.2018 02:00:00 - 18.08.2018 02:00:00 (CEST)Malmo/Sturup, Suède (2636): Direction du vent: 12.08.2018 02:00:00 - 18.08.2018 02:00:00 (CEST)Malmo/Sturup, Suède (2636): reduced air pressure: 12.08.2018 02:00:00 - 18.08.2018 02:00:00 (CEST)Malmo/Sturup, Suède (2636): visibility: 12.08.2018 02:00:00 - 18.08.2018 02:00:00 (CEST)
Date & Time tt [°C] td [°C] ff [km/h] ff [knt] dd ppp [hPa] vv [km]
18.08.2018 02:00:00 12,0 11,8 5 3 SW 1018,6 10
18.08.2018 01:00:00 10,9 10,4 4 2 SE 1018,5 10
18.08.2018 00:00:00 12,1 11,6 0 0 N 1018,1 10
17.08.2018 23:00:00 13,4 12,9 0 0 N 1018,0 10
17.08.2018 22:00:00 15,0 14,5 8 4 NW 1017,4 10
17.08.2018 21:00:00 16,4 15,4 11 6 NW 1017,0 10
17.08.2018 20:00:00 17,0 15,3 9 5 NW 1016,7 10
17.08.2018 19:00:00 16,5 15,0 13 7 NW 1016,3 10
17.08.2018 18:00:00 17,7 14,2 16 9 NW 1016,2 10
17.08.2018 17:00:00 18,5 15,2 16 9 NW 1016,0 10
17.08.2018 16:00:00 21,3 14,9 21 11 WNW 1015,7 10
17.08.2018 15:00:00 23,4 13,6 16 9 WNW 1015,5 10
17.08.2018 14:00:00 24,3 12,9 15 8 NW 1015,3 10
17.08.2018 13:00:00 23,9 13,4 15 8 NW 1015,1 10
17.08.2018 12:00:00 24,3 15,0 11 6 NW 1015,2 10
17.08.2018 11:00:00 23,2 15,8 13 7 NW 1015,4 10
17.08.2018 10:00:00 22,2 15,5 9 5 NNW 1015,0 10
17.08.2018 09:00:00 20,9 15,9 11 6 NNW 1014,7 10
17.08.2018 08:00:00 19,6 17,9 11 6 NW 1014,8 6
17.08.2018 07:00:00 15,9 15,7 0 0 N 1014,7 10
17.08.2018 06:00:00 15,6 15,4 4 2 E 1014,2 10
17.08.2018 05:00:00 15,8 15,3 4 2 ESE 1014,0 10
17.08.2018 04:00:00 15,9 15,4 5 3 SE 1014,1 10
17.08.2018 03:00:00 17,0 16,5 5 3 ESE 1014,2 10
17.08.2018 02:00:00 18,2 17,2 9 5 SE 1014,1 10
17.08.2018 01:00:00 19,0 17,5 13 7 SE 1014,4 10
17.08.2018 00:00:00 19,5 17,8 15 8 SE 1014,7 10
16.08.2018 23:00:00 19,5 17,6 15 8 SE 1014,6 10
16.08.2018 22:00:00 19,6 17,4 15 8 SE 1014,7 10
16.08.2018 21:00:00 20,0 16,8 15 8 SE 1014,9 10
16.08.2018 20:00:00 21,0 16,2 15 8 SSE 1014,9 10
16.08.2018 19:00:00 22,5 15,6 21 11 SSE 1015,0 10
16.08.2018 18:00:00 23,2 15,8 21 11 SSE 1015,3 10
16.08.2018 17:00:00 23,8 15,8 22 12 S 1015,6 10
16.08.2018 16:00:00 24,1 14,8 24 13 S 1015,8 10
16.08.2018 15:00:00 24,9 13,8 28 15 S 1016,0 10
16.08.2018 14:00:00 24,5 13,7 28 15 S 1016,3 10
16.08.2018 13:00:00 24,5 14,6 28 15 SSW 1016,5 10
16.08.2018 12:00:00 23,9 14,9 24 13 SW 1016,7 10
16.08.2018 11:00:00 23,6 15,4 18 10 SSW 1016,8 10
16.08.2018 10:00:00 22,7 16,9 18 10 S 1017,0 10
16.08.2018 09:00:00 20,2 17,8 13 7 S 1017,2 9
16.08.2018 08:00:00 18,5 17,0 8 4 SE 1017,3 10
16.08.2018 07:00:00 17,2 16,6 5 3 ESE 1017,4 10
16.08.2018 06:00:00 16,8 15,8 5 3 S 1017,6 10
16.08.2018 05:00:00 16,5 16,0 8 4 S 1017,5 10
16.08.2018 04:00:00 15,6 15,0 5 3 S 1017,5 10
16.08.2018 03:00:00 17,1 15,6 9 5 SW 1017,5 10
16.08.2018 02:00:00 17,5 16,0 9 5 SW 1017,4 10
16.08.2018 01:00:00 17,6 16,1 9 5 SW 1017,4 10
16.08.2018 00:00:00 16,0 15,4 9 5 SW 1017,2 10
15.08.2018 23:00:00 16,3 15,7 9 5 S 1017,2 10
15.08.2018 22:00:00 17,2 15,7 8 4 SW 1017,1 10
15.08.2018 21:00:00 19,3 15,6 9 5 SW 1016,9 10
15.08.2018 20:00:00 20,2 15,2 11 6 WSW 1016,5 10
15.08.2018 19:00:00 20,9 14,5 18 10 WSW 1016,3 10
15.08.2018 18:00:00 20,6 14,7 18 10 SW 1016,1 10
15.08.2018 17:00:00 21,9 14,5 18 10 W 1016,0 10
15.08.2018 16:00:00 21,6 13,2 16 9 WSW 1016,0 10
15.08.2018 15:00:00 22,0 13,1 18 10 W 1015,9 10
15.08.2018 14:00:00 22,4 12,1 16 9 W 1015,5 10
15.08.2018 13:00:00 20,9 12,1 22 12 W 1015,3 10
15.08.2018 12:00:00 20,5 12,2 18 10 WNW 1015,0 10
15.08.2018 11:00:00 19,6 12,6 21 11 WNW 1014,7 10
15.08.2018 10:00:00 18,8 13,2 22 12 NW 1014,2 10
15.08.2018 09:00:00 17,3 14,2 24 13 WNW 1013,6 10
15.08.2018 08:00:00 17,6 13,7 15 8 WNW 1012,8 10
15.08.2018 07:00:00 17,3 14,4 15 8 WNW 1012,3 10
15.08.2018 06:00:00 17,5 15,1 16 9 NW 1011,6 10
15.08.2018 05:00:00 17,9 16,4 15 8 W 1011,2 10
15.08.2018 04:00:00 17,6 16,1 13 7 W 1011,0 10
15.08.2018 03:00:00 17,3 15,6 13 7 W 1010,8 10
15.08.2018 02:00:00 17,2 15,5 11 6 W 1010,5 10
15.08.2018 01:00:00 17,2 15,2 15 8 WNW 1010,1 10
15.08.2018 00:00:00 17,4 15,2 18 10 WNW 1009,7 10
14.08.2018 23:00:00 18,0 15,4 18 10 W 1009,1 10
14.08.2018 22:00:00 17,5 14,9 15 8 WNW 1008,8 10
14.08.2018 21:00:00 17,8 15,1 16 9 WNW 1008,4 10
14.08.2018 20:00:00 19,6 15,7 15 8 WNW 1007,6 10
14.08.2018 19:00:00 19,9 17,3 9 5 W 1007,0 10
14.08.2018 18:00:00 20,5 16,5 16 9 W 1006,7 10
14.08.2018 17:00:00 21,7 15,8 21 11 W 1006,2 10
14.08.2018 16:00:00 21,7 15,5 18 10 WSW 1006,0 10
14.08.2018 15:00:00 22,1 16,4 21 11 SW 1005,9 10
14.08.2018 14:00:00 21,9 15,5 21 11 SW 1005,8 10
14.08.2018 13:00:00 21,6 15,0 24 13 SSW 1005,5 10
14.08.2018 12:00:00 20,0 15,6 16 9 SW 1005,5 10
14.08.2018 11:00:00 20,6 17,0 18 10 SW 1005,4 10
14.08.2018 10:00:00 19,5 16,3 18 10 WSW 1005,3 10
14.08.2018 09:00:00 19,3 17,4 16 9 SW 1005,0 10
14.08.2018 08:00:00 19,0 17,5 8 4 SE 1004,8 10
14.08.2018 07:00:00 17,1 16,1 8 4 ESE 1004,7 10
14.08.2018 06:00:00 18,0 16,3 9 5 ESE 1004,5 10
14.08.2018 05:00:00 18,5 16,7 15 8 E 1004,9 10
14.08.2018 04:00:00 18,0 16,2 16 9 ESE 1005,2 10
14.08.2018 03:00:00 17,4 15,9 16 9 E 1005,4 10
14.08.2018 02:00:00 17,5 16,0 21 11 E 1006,0 10
14.08.2018 01:00:00 17,4 15,9 18 10 E 1006,7 10
14.08.2018 00:00:00 17,5 16,0 21 11 E 1006,8 10
13.08.2018 23:00:00 17,3 16,3 22 12 E 1007,1 10
13.08.2018 22:00:00 17,2 15,7 18 10 ESE 1008,2 10
13.08.2018 21:00:00 17,7 15,9 18 10 E 1007,8 10
13.08.2018 20:00:00 18,0 16,0 21 11 E 1007,4 10
13.08.2018 19:00:00 18,6 16,0 15 8 ESE 1007,8 10
13.08.2018 18:00:00 19,3 15,8 13 7 ESE 1008,2 10
13.08.2018 17:00:00 19,4 16,1 13 7 SSE 1008,6 10
13.08.2018 16:00:00 19,4 16,2 15 8 ESE 1008,6 10
13.08.2018 15:00:00 20,0 16,6 15 8 SSE 1009,1 10
13.08.2018 14:00:00 20,2 16,0 16 9 SSE 1009,2 10
13.08.2018 13:00:00 19,3 17,3 15 8 SSE 1009,5 10
13.08.2018 12:00:00 18,8 16,8 16 9 SSE 1009,7 10
13.08.2018 11:00:00 18,3 16,6 11 6 SSE 1009,6 10
13.08.2018 10:00:00 18,0 16,2 13 7 S 1009,5 10
13.08.2018 09:00:00 17,4 16,8 13 7 S 1009,5 7
13.08.2018 08:00:00 16,7 16,1 11 6 SSW 1009,4 8
13.08.2018 07:00:00 16,5 16,0 9 5 SW 1009,3 5
13.08.2018 06:00:00 15,0 14,5 5 3 SSW 1009,5 3,4
13.08.2018 05:00:00 14,4 13,9 8 4 ESE 1009,6 6
13.08.2018 04:00:00 13,0 12,5 11 6 ESE 1010,1 8
13.08.2018 03:00:00 12,7 12,2 11 6 ESE 1010,4 7
13.08.2018 02:00:00 12,3 11,8 9 5 ESE 1011,1 7
13.08.2018 01:00:00 12,3 11,8 9 5 SE 1011,7 10
13.08.2018 00:00:00 12,4 11,9 5 3 SE 1012,2 10
12.08.2018 23:00:00 12,6 11,8 5 3 ESE 1012,4 10
12.08.2018 22:00:00 12,4 11,5 4 2 ESE 1012,7 10
12.08.2018 21:00:00 13,2 12,4 0 0 N 1013,2 10
12.08.2018 20:00:00 13,5 12,2 8 4 NW 1013,3 10
12.08.2018 19:00:00 14,6 12,3 11 6 W 1013,7 10
12.08.2018 18:00:00 15,8 11,4 15 8 W 1013,8 10
12.08.2018 17:00:00 16,2 12,9 24 13 W 1014,0 10
12.08.2018 16:00:00 18,2 11,3 21 11 WSW 1014,0 10
12.08.2018 15:00:00 17,8 8,6 24 13 WSW 1014,1 10
12.08.2018 14:00:00 17,8 11,4 26 14 WSW 1014,4 10
12.08.2018 13:00:00 20,2 9,4 28 15 W 1014,3 10
12.08.2018 12:00:00 19,1 6,6 31 17 W 1014,5 10
12.08.2018 11:00:00 18,2 9,0 28 15 W 1014,6 10
12.08.2018 10:00:00 17,3 9,7 26 14 W 1014,8 10
12.08.2018 09:00:00 16,2 10,3 26 14 W 1014,8 10
12.08.2018 08:00:00 15,4 10,2 28 15 W 1014,6 10
12.08.2018 07:00:00 15,0 10,2 22 12 W 1014,4 10
12.08.2018 06:00:00 13,7 9,3 22 12 W 1014,0 10
12.08.2018 05:00:00 13,4 9,1 22 12 W 1014,1 10
12.08.2018 04:00:00 13,5 9,2 26 14 W 1013,9 10
12.08.2018 03:00:00 13,8 9,2 26 14 W 1013,9 10
12.08.2018 02:00:00 14,0 9,2 26 14 W 1013,7 10

tt = Température de l'air
td = dewpoint
ff = Vitesse du vent
dd = Direction du vent
ppp = reduced air pressure
vv = visibility

stations d'obs. à proximité